Location: Rock Island IL
(41.5000°N, 90.5500°W)
Time: 09:51:22
(UTC-05:00)

Daily predictions for brighter satellites

Satellite Brightness Start Highest point End
(mag) Time Altitude Azimuth Time Altitude Azimuth Time Altitude Azimuth
Cosmos 2322 Rocket 2.2 20:19:23 10° S 20:24:54 63° ESE 20:30:28 10° NNE
ALOS 3.3 20:21:10 10° S 20:25:41 50° W 20:30:14 10° NNW
Resurs 01 Rocket 1.7 20:22:24 10° SSE 20:26:50 90° SSE 20:31:19 10° NNW
GRACE-1 3.8 20:24:12 10° N 20:26:57 89° W 20:29:40 10° S
GRACE-2 3.8 20:24:33 10° N 20:27:19 89° W 20:30:02 10° S
USA 267 3.5 20:21:30 10° NE 20:28:04 80° NW 20:34:36 10° SW
H-2A R/B 3.2 20:25:42 10° S 20:29:34 66° W 20:33:24 10° NNW
Cosmos 1869 3.2 20:27:18 10° S 20:31:14 83° E 20:35:12 10° N
SAR-Lupe-4 4.3 20:28:52 10° SE 20:32:09 35° ENE 20:35:29 10° N
COSMOS 2428 4.4 20:30:43 10° ESE 20:32:28 11° E 20:34:14 10° ENE
Cosmos 2360 Rocket 3.0 20:28:45 10° SSE 20:33:29 28° ESE 20:38:14 10° NE
Cosmos 1825 2.3 20:30:10 10° N 20:33:55 55° E 20:37:39 10° SSE
Cosmos 1980 Rocket 3.8 20:28:56 10° SW 20:34:17 41° WNW 20:39:40 10° N
OAO 3 Rocket 4.0 20:31:33 10° WSW 20:36:03 38° S 20:40:29 11° ESE
Cosmos 1503 Rocket 4.0 20:32:44 10° NNW 20:38:02 86° ENE 20:43:14 10° SSE
Spot 2 Rocket 3.7 20:34:57 10° S 20:40:02 76° WSW 20:45:09 10° NNW
Cosmos 2142 Rocket 4.5 20:36:30 10° S 20:42:38 86° E 20:48:50 10° N
Cosmos 1354 Rocket 4.1 20:38:38 10° NNW 20:43:56 83° WSW 20:49:10 10° SSE
GENESIS II 4.3 20:39:55 10° SSW 20:43:58 89° ESE 20:48:02 10° NNE
Cosmos 968 Rocket 4.4 20:39:44 10° N 20:44:22 31° ENE 20:48:27 12° ESE
ATLAS 5 CENTAUR R/B 2.8 20:42:14 10° NNW 20:48:02 51° NE 20:53:36 13° ESE
Cosmos 2322 4.4 20:43:40 10° SSE 20:48:40 32° ESE 20:53:40 10° NE
Cosmos 1408 2.6 20:45:30 10° N 20:49:12 88° WSW 20:52:50 10° S
SAR-Lupe-1 4.3 20:46:02 10° SSE 20:49:29 50° ENE 20:52:59 10° N
Cosmos 2026 Rocket 4.0 20:47:57 10° N 20:54:12 90° E 21:00:19 10° S
SL-16 R/B 2.4 20:49:11 10° SSW 20:54:50 77° WNW 21:00:33 10° NNE
Meteor 1-29 3.1 20:52:41 10° NNE 20:56:06 51° E 20:59:26 10° S
CZ-2D R/B 4.3 20:52:30 10° S 20:56:15 47° W 21:00:02 10° NNW
Cosmos 1867 4.1 20:51:56 10° NNW 20:57:12 46° NE 21:01:17 16° ESE
CZ-4B DEB 4.4 20:54:20 10° SSE 20:57:52 81° ENE 21:01:27 10° N
Cosmos 1733 Rocket 3.0 20:55:37 10° N 21:00:06 81° E 21:04:33 10° S
Envisat 3.0 20:55:07 10° SSE 21:00:10 74° ENE 21:05:15 10° N
H-2A R/B 4.0 21:00:03 10° E 21:01:54 12° ENE 21:03:46 10° NE
USA 234 3.5 20:56:41 14° ESE 21:02:24 63° NE 21:08:51 10° NW
Cosmos 1933 3.2 21:04:06 10° S 21:08:07 80° E 21:12:10 10° N
Abrixas rocket 4.3 21:05:55 10° WNW 21:08:40 24° N 21:11:25 10° NE
Cosmos 1862 Rocket 3.6 21:04:50 10° S 21:09:18 89° E 21:13:49 10° N
Okean 1-7 4.3 21:08:39 20° ESE 21:09:54 22° E 21:13:18 10° NE
Helios 1A 3.3 21:06:38 10° S 21:10:50 69° WSW 21:15:05 10° NNW
Cosmos 2333 Rocket 4.2 21:13:23 11° E 21:13:23 11° E 21:13:50 10° ENE
Cosmos 2278 Rocket 4.3 21:12:11 10° NNE 21:14:28 12° NE 21:16:46 10° ENE
USA 186 3.6 21:12:53 10° SSW 21:15:17 26° W 21:17:50 10° NW
Cosmos 1844 Rocket 3.9 21:11:48 10° N 21:16:25 26° NE 21:19:16 18° E
SJ-11-01 4.3 21:13:36 11° SSE 21:18:06 85° WSW 21:22:48 10° NNW
CZ-4B DEB 3.0 21:16:48 15° S 21:19:08 61° W 21:22:09 10° NNW
YAOGAN 6 2.6 21:21:30 27° SSE 21:23:17 61° ENE 21:26:52 10° N
Cosmos 1862 4.1 21:20:53 10° NNW 21:24:48 50° W 21:28:43 10° S
ERS-1 Rocket 3.0 21:22:03 21° SE 21:25:17 60° ENE 21:30:14 10° N
Milstar 3 4.1 21:22:24 10° WSW 21:28:31 24° SSW 21:31:42 17° SSE
Cosmos 1703 Rocket 3.7 21:27:01 21° SSE 21:29:50 55° E 21:34:10 10° NNE
SeaSat 1 3.7 21:27:56 20° E 21:30:07 28° NE 21:34:18 10° N
Cosmos 1782 4.2 21:36:14 23° ENE 21:36:14 23° ENE 21:38:58 10° NE
Cosmos 2219 Rocket 3.3 21:37:34 24° E 21:37:34 24° E 21:41:40 10° NE
Meteor 2-10 Rocket 3.8 21:33:05 10° S 21:38:55 85° W 21:44:44 10° N
Meteor 1-26 Rocket 4.2 21:35:17 10° S 21:40:59 86° E 21:46:49 10° N
NOSS 3-1 (C) 4.0 21:42:31 30° ESE 21:42:58 30° ESE 21:48:18 10° NE
Cosmos 2266 Rocket 4.0 21:36:43 10° N 21:43:02 76° E 21:47:08 24° SSE
Cosmos 1939 Rocket 4.0 21:40:34 13° SSW 21:43:51 41° W 21:47:39 10° NNW
USA 229 DEB 3.6 21:41:21 10° SSW 21:48:10 82° ESE 21:55:08 10° NE
USA 229 3.6 21:41:28 10° SSW 21:48:16 81° ESE 21:55:15 10° NE
YAOGAN 11 4.1 21:47:26 42° SE 21:48:42 62° ENE 21:53:00 10° N
SPOT 1/Viking Rocket 4.2 21:47:41 32° ESE 21:49:10 39° ENE 21:53:59 10° N
Cosmos 2221 Rocket 3.5 21:48:15 36° SSE 21:49:56 68° E 21:54:22 10° NNE
SPOT 5 3.0 21:50:39 40° SE 21:52:03 56° ENE 21:56:34 10° N
Cosmos 1777 Rocket 4.0 21:51:09 10° NNW 21:56:25 66° ENE 21:58:03 43° SE
Lacrosse 4 Rocket 4.2 21:56:12 10° W 21:58:02 12° WSW 21:59:51 10° SW
Cosmos 2263 Rocket 3.6 21:53:29 10° NW 21:58:24 33° WSW 22:02:37 13° SSW
NOSS 3-1 (A) 4.4 22:00:30 26° E 22:00:30 26° E 22:04:22 10° NE
Atlas Centaur 2 3.5 21:57:20 10° WSW 22:03:40 36° S 22:05:12 33° SSE
Cosmos 1633 4.3 22:02:45 10° NNE 22:04:45 22° NE 22:04:45 22° NE
Cosmos 2237 4.2 22:00:51 10° SSW 22:06:35 84° WNW 22:12:21 10° NNE
SL-08 RB Rocket 3.7 22:07:29 56° ESE 22:08:06 62° ENE 22:12:36 10° N
Meteor 1-10 Rocket 4.3 22:12:10 45° SSE 22:13:47 62° E 22:19:34 10° NNE
H-2A R/B 3.2 22:14:15 30° ENE 22:14:15 30° ENE 22:17:45 10° N
MOS 1-B Rocket 3.8 22:12:56 43° SSE 22:15:00 84° ENE 22:20:38 10° NNW
COSMOS 2428 2.6 22:10:54 14° SSW 22:15:50 89° ESE 22:21:35 10° NNE
Cosmos 2360 Rocket 3.4 22:11:54 10° SW 22:17:14 42° WNW 22:22:38 10° NNE
Cosmos 1553 Rocket 4.4 22:17:12 41° ESE 22:17:50 42° E 22:23:37 10° NNE
Meteor 1-11 Rocket 4.3 22:13:01 10° N 22:18:07 37° ENE 22:18:30 37° E
CZ-4C R/B 3.6 22:14:45 10° NNW 22:21:24 43° NE 22:24:27 30° E
MetOp-B 4.5 22:20:20 36° SSW 22:22:22 61° WSW 22:27:41 10° NNW
Landsat 7 4.0 22:25:08 53° ENE 22:25:09 53° ENE 22:29:48 10° N
Cosmos 1844 3.6 22:23:23 10° NNW 22:29:04 72° ENE 22:29:52 62° ESE
Cosmos 1606 3.5 22:31:23 46° N 22:31:23 46° N 22:34:08 10° N
ATLAS 5 CENTAUR R/B 3.7 22:27:16 10° NW 22:32:38 32° WSW 22:35:10 24° SSW
SL-16 R/B 4.4 22:36:36 11° ENE 22:36:36 11° ENE 22:37:01 10° ENE
ARGOS 3.6 22:37:52 44° SSW 22:39:13 56° W 22:44:31 10° NNW
Terra 2.2 22:40:44 51° NE 22:40:44 51° NE 22:44:55 10° N
H-2A R/B 1.8 22:40:23 80° SSW 22:40:38 85° WSW 22:45:36 10° NNW
USA 234 4.0 22:44:02 34° SSW 22:45:35 39° SW 22:51:38 10° WNW
Okean 2 Rocket 4.2 22:42:41 10° NNW 22:46:52 38° W 22:47:27 36° WSW
S3M 3.8 22:47:55 67° ESE 22:48:21 70° E 22:54:33 10° NNE
DMSP B5D2-2 4.0 22:45:20 10° NNE 22:50:21 75° ENE 22:50:21 75° ENE
Cosmos 2237 Rocket 2.5 22:55:50 52° ENE 22:55:50 52° ENE 23:00:23 10° NNE
Cosmos 2333 Rocket 2.1 22:55:19 83° SSE 22:55:30 86° ESE 23:01:19 10° NNE
Cosmos 1570 Rocket 4.1 22:57:58 67° WSW 22:58:23 70° WNW 23:03:40 10° NNE
Cosmos 2278 Rocket 2.2 22:53:59 10° NNW 22:59:34 69° ENE 22:59:34 69° ENE
Cosmos 1844 Rocket 3.2 22:55:13 10° NW 23:00:33 48° WSW 23:00:56 47° WSW
Meteor 2-11 Rocket 4.3 23:06:13 78° E 23:06:13 78° E 23:12:16 10° N
SeaSat 1 3.3 23:07:43 41° WSW 23:07:43 41° WSW 23:12:07 10° NW
Cosmos 2208 Rocket 4.3 23:07:21 63° W 23:07:43 65° WNW 23:13:01 10° NNE
Cosmos 1937 Rocket 4.3 23:05:03 10° N 23:09:20 42° NE 23:09:20 42° NE
Cosmos 2219 Rocket 3.0 23:19:11 37° WSW 23:20:52 48° WNW 23:26:19 10° NNE
Meteor 1-5 Rocket 4.4 23:15:25 10° N 23:20:26 64° NE 23:20:26 64° NE
Cosmos 1745 Rocket 4.0 23:15:24 10° N 23:21:43 75° W 23:22:00 74° WSW
NOSS 3-1 (C) 4.3 23:29:42 21° WSW 23:33:28 47° NW 23:39:47 10° NNE
Cosmos 1898 Rocket 4.1 23:28:20 10° NNW 23:32:21 54° NNW 23:32:21 54° NNW
Meteor 1-27 Rocket 4.5 23:35:39 44° W 23:36:04 45° WNW 23:41:25 10° N
NOSS 3-1 (A) 4.2 23:47:49 38° W 23:49:36 49° NW 23:55:58 10° NNE
H-2A R/B 4.3 23:51:22 19° WNW 23:51:22 19° WNW 23:53:24 10° NW
ATLAS 2AS CENTAUR R/B 3.5 23:52:17 45° E 23:52:17 45° E 23:58:21 10° NE
Cosmos 2369 Rocket 4.2 23:51:24 10° N 23:55:02 17° NE 23:55:45 17° ENE
